SCP
0 0 0 0 0 0 0 0 0 0 0 0 0 0 0 0 0 0 0 0 0 0 0 0 0 0 0 0 0 0 0 0 0 0 0 0 0 0 0 0 0 0 0 0
0 0 0 0 0 0 0 0 0 0 0 0 0 0 0 0 0 0 0 0 0 0 0 0 0 0 0 0 0 0 0 0 0 0 0 0 0 0 0 0 0 0 0 0
0 0 0 0 0 0 0 0 0 0 0 0 0 0 0 0 0 0 0 0 0 0 0 0 0 0 0 0 0 0 0 0 0 0 0 0 0 0 0 0 0 0 0 0
0 0 0 0 0 0 0 0 0 0 0 0 0 0 0 0 0 0 0 0 0 0 0 0 0 0 0 0 0 0 0 0 0 0 0 0 0 0 0 0 0 0 0 0
0 0 0 0 0 0 0 0 0 0 0 0 0 0 0 0 0 0 0 0 0 0 0 0 0 0 0 0 0 0 0 0 0 0 0 0 0 0 0 0 0 0 0 0
0 0 0 0 0 0 0 0 0 0 0 0 0 0 0 0 0 0 0 0 0 0 0 0 0 0 0 0 0 0 0 0 0 0 0 0 0 0 0 0 0 0 0 0
0 0 0 0 0 0 0 0 0 0 0 0 0 0 0 0 0 0 0 0 0 0 0 0 0 0 0 0 0 0 0 0 0 0 0 0 0 0 0 0 0 0 0 0
0 0 0 0 0 0 0 0 0 0 0 0 0 0 0 0 0 0 0 0 0 0 0 0 0 0 0 0 0 0 0 0 0 0 0 0 0 0 0 0 0 0 0 0
0 0 0 0 0 0 0 0 0 0 0 0 0 0 0 0 0 0 0 0 0 0 0 0 0 0 0 0 0 0 0 0 0 0 0 0 0 0 0 0 0 0 0 0
0 0 0 0 0 0 0 0 0 0 0 0 0 0 0 0 0 0 0 0 0 0 0 0 0 0 0 0 0 0 0 0 0 0 0 0 0 0 0 0 0 0 0 0
0 0 0 0 0 0 0 0 0 0 0 0 0 0 0 0 0 0 0 0 0 0 0 0 0 0 0 0 0 0 0 0 0 0 0 0 0 0 0 0 0 0 0 0
0 0 0 0 0 0 0 0 0 0 0 0 0 0 0 0 0 0 0 0 0 0 0 0 0 0 0 0 0 0 0 0 0 0 0 0 0 0 0 0 0 0 0 0
0 0 0 0 0 0 0 0 0 0 0 0 0 0 0 0 0 0 0 0 0 0 0 0 0 0 0 0 0 0 0 0 0 0 0 0 0 0 0 0 0 0 0 0
0 0 0 0 0 0 0 0 0 0 0 0 0 0 0 0 0 0 0 0 0 0 0 0 0 0 0 0 0 0 0 0 0 0 0 0 0 0 0 0 0 0 0 0
0 0 0 0 0 0 0 0 0 0 0 0 0 0 0 0 0 0 0 0 0 0 0 0 0 0 0 0 0 0 0 0 0 0 0 0 0 0 0 0 0 0 0 0
0 0 0 0 0 0 0 0 0 0 0 0 0 0 0 0 0 0 0 0 0 0 0 0 0 0 0 0 0 0 0 0 0 0 0 0 0 0 0 0 0 0 0 0
0 0 0 0 0 0 0 0 0 0 0 0 0 0 0 0 0 0 0 0 0 0 0 0 0 0 0 0 0 0 0 0 0 0 0 0 0 0 0 0 0 0 0 0
0 0 0 0 0 0 0 0 0 0 0 0 0 0 0 0 0 0 0 0 0 0 0 0 0 0 0 0 0 0 0 0 0 0 0 0 0 0 0 0 0 0 0 0
0 0 0 0 0 0 0 0 0 0 0 0 0 0 0 0 0 0 0 0 0 0 0 0 0 0 0 0 0 0 0 0 0 0 0 0 0 0 0 0 0 0 0 0
0 0 0 0 0 0 0 0 0 0 0 0 0 0 0 0 0 0 0 0 0 0 0 0 0 0 0 0 0 0 0 0 0 0 0 0 0 0 0 0 0 0 0 0
0 0 0 0 0 0 0 0 0 0 0 0 0 0 0 0 0 0 0 0 0 0 0 0 0 0 0 0 0 0 0 0 0 0 0 0 0 0 0 0 0 0 0 0
0 0 0 0 0 0 0 0 0 0 0 0 0 0 0 0 0 0 0 0 0 0 0 0 0 0 0 0 0 0 0 0 0 0 0 0 0 0 0 0 0 0 0 0
0 0 0 0 0 0 0 0 0 0 0 0 0 0 0 0 0 0 0 0 0 0 0 0 0 0 0 0 0 0 0 0 0 0 0 0 0 0 0 0 0 0 0 0
0 0 0 0 0 0 0 0 0 0 0 0 0 0 0 0 0 0 0 0 0 0 0 0 0 0 0 0 0 0 0 0 0 0 0 0 0 0 0 0 0 0 0 0
0 0 0 0 0 0 0 0 0 0 0 0 0 0 0 0 0 0 0 0 0 0 0 0 0 0 0 0 0 0 0 0 0 0 0 0 0 0 0 0 0 0 0 0
0 0 0 0 0 0 0 0 0 0 0 0 0 0 0 0 0 0 0 0 0 0 0 0 0 0 0 0 0 0 0 0 0 0 0 0 0 0 0 0 0 0 0 0
0 0 0 0 0 0 0 0 0 0 0 0 0 0 0 0 0 0 0 0 0 0 0 0 0 0 0 0 0 0 0 0 0 0 0 0 0 0 0 0 0 0 0 0
Wind_Speed
6 6 4 6 7 7 9 9 9 9 9 10 7 5 5 4 3 2 3 3 3 3 4 4 4 4 4 4 4 3 3 4 6 5 5 4 5 5 5 5 5 5 5 5
5 4 5 8 11 10 11 9 11 10 13 9 6 4 4 4 4 4 4 4 4 4 4 5 5 5 5 5 5 3 4 6 5 4 4 5 5 5 5 5 5 5 5 6
5 4 4 10 10 11 8 8 9 12 11 3 3 4 5 5 4 4 5 5 5 4 5 5 5 5 5 5 5 4 5 6 5 5 5 6 5 5 5 6 5 5 6 6
3 2 8 8 2 6 7 7 8 7 5 4 5 4 4 4 4 5 5 5 5 5 5 5 5 5 5 5 5 5 6 6 6 5 6 5 5 6 6 5 5 5 6 6
2 4 10 8 3 5 6 6 7 9 7 5 2 2 4 4 4 5 5 5 5 5 5 5 5 5 5 5 5 6 7 7 6 5 6 6 6 7 6 5 5 5 5 6
4 5 8 6 2 3 3 5 4 5 5 3 2 1 5 3 3 4 4 4 4 4 4 5 6 4 5 6 6 7 7 7 6 5 6 7 7 7 5 5 6 5 5 6
7 8 10 6 2 4 3 6 2 3 3 3 5 6 4 3 4 4 4 5 5 5 5 6 5 4 5 6 7 8 7 6 6 6 6 7 6 5 5 5 5 5 6 6
6 8 11 3 5 6 6 2 1 2 2 4 5 5 5 5 5 5 5 5 5 5 6 6 5 4 6 8 8 7 6 6 6 6 5 5 5 5 4 4 5 5 5 6
10 9 3 3 5 3 2 2 3 3 4 4 4 5 5 5 5 6 6 6 5 5 7 7 5 4 7 8 7 6 6 6 6 6 5 5 5 5 4 4 4 5 5 5
6 8 6 5 5 4 4 4 5 5 5 4 6 7 7 6 6 6 6 6 5 5 7 7 6 5 7 7 6 6 6 6 5 5 5 5 4 4 4 5 5 5 5 6
8 7 6 6 5 5 4 4 5 5 5 6 6 7 6 6 6 6 6 6 5 5 7 8 7 7 7 6 5 6 6 6 6 5 5 5 5 5 6 6 7 7 6 5
9 7 6 6 5 4 5 7 7 6 6 5 5 7 6 7 6 6 6 6 6 6 7 8 7 7 7 6 5 5 6 6 5 4 4 4 5 5 8 10 12 13 12 10
8 5 5 6 4 5 6 7 6 6 6 6 5 6 6 6 5 5 6 6 6 7 7 7 7 8 7 6 5 5 6 6 5 5 5 4 4 5 6 6 9 11 12 13
6 4 5 6 6 6 6 6 5 5 5 5 5 5 4 5 5 5 6 6 6 6 7 7 7 8 7 6 6 6 6 7 7 5 5 5 5 5 5 5 6 5 7 11
7 7 7 6 5 5 4 3 3 5 5 4 4 4 4 5 6 7 6 6 6 6 7 7 8 9 7 6 6 7 6 5 5 5 5 5 5 5 5 6 6 5 4 5
5 5 5 5 6 5 4 4 5 5 5 4 4 5 5 5 6 7 6 5 5 7 8 7 9 9 7 6 7 6 6 10 8 5 5 5 5 5 5 5 5 5 5 5
4 5 4 5 6 5 5 5 5 5 4 5 5 5 5 5 6 7 7 6 6 8 8 9 10 9 7 7 7 6 5 7 9 6 5 5 5 5 5 5 5 6 6 6
7 7 6 6 5 5 5 5 5 5 5 6 5 5 5 6 7 8 8 7 7 8 8 8 8 8 7 7 6 5 5 5 5 5 5 5 5 5 5 6 6 7 6 6
5 5 5 5 5 5 5 5 6 6 6 5 5 6 6 7 7 8 7 7 8 10 9 7 10 8 8 8 8 5 6 6 6 6 5 8 7 5 5 6 6 6 6 5
3 3 4 4 4 5 5 6 6 6 6 5 6 6 8 8 8 8 7 8 8 8 8 9 9 8 8 8 9 5 6 6 7 6 5 5 5 6 6 6 6 6 6 6
4 4 5 5 5 6 6 6 6 7 7 6 7 8 9 9 8 7 7 9 9 7 8 12 8 7 7 8 9 5 6 6 6 6 6 6 6 6 6 6 6 6 6 6
4 5 6 6 6 7 7 6 6 7 8 7 8 8 9 10 9 8 9 9 10 11 8 6 6 9 11 12 6 6 6 6 6 6 6 6 6 6 6 6 6 6 6 5
6 6 7 7 8 8 7 7 7 7 8 9 9 9 10 9 7 7 9 7 6 11 8 7 11 15 17 10 6 6 6 7 7 6 6 6 6 6 6 6 6 6 5 5
7 7 7 7 6 7 9 10 8 7 8 9 9 10 9 8 8 7 8 11 13 14 9 11 16 18 16 7 6 6 6 7 7 6 6 6 6 6 6 6 6 5 5 6
8 8 7 7 7 8 10 9 8 8 8 8 9 10 8 7 8 8 7 8 13 14 9 11 16 17 10 6 6 6 6 6 7 6 6 6 6 5 5 5 5 5 5 5
8 8 8 8 8 8 7 6 7 7 7 8 8 7 6 6 7 8 7 9 11 13 10 7 8 9 6 6 6 7 6 7 7 7 6 6 6 6 5 5 6 5 5 5
8 8 7 7 8 7 7 7 8 9 8 8 9 8 7 6 6 7 8 8 8 8 7 7 6 6 6 6 6 6 6 6 6 6 5 5 5 5 5 6 5 4 4 4
Wind_Direction
252 260 251 245 238 213 209 210 217 238 237 254 253 249 256 258 266 288 296 304 304 300 297 297 297 293 288 284 279 269 262 256 254 253 248 246 248 249 248 246 248 247 249 254
281 263 250 260 247 231 232 228 236 256 266 253 247 243 251 255 254 261 274 284 291 295 296 294 291 289 289 284 279 268 261 260 262 260 254 249 248 247 246 248 250 247 246 250
275 303 320 268 234 210 213 211 202 228 245 244 237 242 242 245 241 244 261 273 279 282 279 279 279 278 279 278 279 269 263 265 265 259 257 254 251 248 246 247 244 246 247 246
272 341 250 247 200 189 208 235 218 232 250 237 239 250 250 235 226 241 257 265 272 274 277 278 276 281 282 283 278 270 267 266 263 257 258 257 248 245 245 243 242 246 248 246
206 255 274 287 239 179 192 257 220 223 246 253 259 327 291 247 224 235 249 256 260 264 270 278 282 283 290 290 283 274 269 266 261 254 255 256 251 248 244 241 246 246 249 246
199 234 251 254 222 165 128 272 236 201 229 226 130 257 271 263 250 262 267 269 273 278 278 278 280 284 287 287 284 275 271 268 264 254 251 254 254 252 245 239 247 251 253 248
219 240 262 256 198 123 187 251 235 195 214 195 198 221 248 275 281 273 276 279 280 282 279 275 279 284 282 283 276 273 275 272 267 258 253 254 256 251 245 245 251 252 255 256
195 223 251 214 144 185 220 251 221 217 221 219 236 260 272 280 282 287 290 288 285 284 283 282 279 276 280 279 277 282 280 274 271 266 261 260 253 255 243 237 248 254 258 266
200 220 248 188 204 229 210 231 243 236 241 235 248 260 266 270 273 279 280 282 282 279 285 287 278 264 273 280 287 290 286 279 277 274 266 259 252 255 252 238 242 250 249 258
249 262 263 259 256 260 243 238 248 244 246 242 249 258 265 268 272 275 277 279 280 280 282 285 283 273 265 277 285 285 282 281 277 274 273 265 253 245 243 240 241 246 247 252
247 263 278 263 237 239 250 254 260 258 247 243 247 259 261 268 271 272 276 277 272 270 275 280 286 285 281 280 281 280 279 278 275 267 266 269 260 245 240 237 232 238 242 240
236 224 221 245 238 229 243 253 254 258 265 258 244 254 263 265 265 268 273 277 278 277 276 281 285 287 286 281 273 273 281 280 274 271 268 265 271 279 257 251 258 253 251 249
242 249 243 260 260 242 243 248 250 247 248 258 259 250 253 261 265 269 274 277 276 277 279 283 288 288 287 283 274 263 266 273 272 267 265 263 263 268 284 283 264 259 256 256
245 248 260 254 254 254 251 253 255 258 256 252 254 257 257 263 270 272 273 275 278 282 285 285 286 286 285 284 278 271 266 267 267 262 260 259 258 257 258 269 282 279 262 257
244 230 239 253 261 261 254 250 255 262 263 264 257 260 263 266 272 274 277 281 284 284 284 285 286 286 288 284 278 275 272 268 263 259 257 258 258 256 253 253 259 268 278 270
250 251 246 247 254 258 256 247 248 257 261 263 268 269 266 266 272 279 282 282 281 283 284 283 281 283 288 284 281 277 270 269 268 263 259 259 257 254 253 251 253 255 258 261
225 245 243 252 254 254 246 241 243 253 261 263 266 273 280 284 286 286 284 277 266 269 274 275 277 283 283 278 275 275 273 273 272 268 257 255 255 254 253 252 252 254 255 251
218 226 228 231 239 249 253 250 249 252 252 255 266 273 276 276 278 282 286 290 290 286 278 269 270 277 277 274 269 268 268 268 265 262 260 257 257 251 251 253 253 255 260 258
232 235 243 245 242 239 246 250 251 251 255 259 263 265 266 267 269 275 281 287 287 288 286 276 280 280 279 277 277 268 267 269 268 263 256 263 265 254 249 252 255 254 254 254
245 241 244 251 249 240 247 254 256 259 258 254 258 267 271 271 269 272 276 273 264 261 272 282 285 281 279 279 279 268 265 265 266 266 260 253 254 255 253 252 254 255 253 251
252 254 254 254 258 255 249 250 251 258 261 254 251 259 267 273 272 269 272 279 277 264 268 279 280 277 278 279 282 269 264 264 264 263 260 258 257 257 256 254 253 253 253 253
257 257 259 258 257 262 261 251 247 254 261 262 259 261 266 272 272 267 255 257 270 278 280 274 272 276 280 284 273 266 264 263 264 262 258 254 255 258 258 256 255 254 253 252
255 255 257 257 256 261 269 264 254 252 258 261 262 261 260 262 262 264 275 267 261 274 277 271 275 282 287 285 271 265 263 262 262 261 258 253 251 252 255 255 254 253 252 252
256 257 258 261 263 268 273 273 265 257 255 258 259 256 257 265 268 253 252 271 277 280 276 276 282 286 289 279 267 264 262 261 261 260 258 257 254 252 252 253 253 252 250 249
257 259 261 262 261 261 263 268 271 268 264 264 264 259 251 243 251 266 265 265 272 279 278 279 283 286 283 271 266 264 262 259 259 259 254 254 254 253 252 251 249 250 251 249
256 257 257 253 252 258 261 261 264 267 267 271 272 267 259 252 250 258 264 265 264 273 274 273 274 277 272 267 265 263 262 267 269 263 256 254 253 253 253 251 248 248 249 248
256 256 259 262 261 254 251 253 258 263 262 262 270 272 268 264 261 260 261 264 266 267 267 267 266 265 266 266 266 263 261 259 258 257 256 254 253 252 250 247 247 246 245 244